This is the latest recevied weather packets stored in our database for station/object KD5BIG-13. If no packets are shown the sender has not sent any weather packets the latest 10 day(s).
| Time | Temp. | Humidity | Pressure | Rain* | Wind** | Luminosity | Snow |
|---|---|---|---|---|---|---|---|
| 1778124662 | 17.78° C | 97% | 1016.3 hPa | 0 mm | - | 0 W/m² | - |
| 1778124360 | 17.78° C | 97% | 1016 hPa | 0.51 mm | - | 0 W/m² | - |
| 1778124056 | 17.78° C | 97% | 1015.9 hPa | 0.51 mm | - | 0 W/m² | - |
| 1778123752 | 17.78° C | 96% | 1015.9 hPa | 0 mm | - | 0 W/m² | - |
| 1778123449 | 17.78° C | 96% | 1015.8 hPa | 0 mm | - | 0 W/m² | - |
| 1778123146 | 18.33° C | 97% | 1015.8 hPa | 0 mm | - | 0 W/m² | - |
| 1778122844 | 18.33° C | 97% | 1015.6 hPa | 0.51 mm | - | 0 W/m² | - |
| 1778122541 | 18.33° C | 96% | 1015.3 hPa | 1.27 mm | - | 0 W/m² | - |
| 1778122238 | 18.89° C | 96% | 1015.3 hPa | 0.51 mm | - | 0 W/m² | - |
| 1778121936 | 18.89° C | 96% | 1014.7 hPa | 1.27 mm | - | 0 W/m² | - |
| 1778121632 | 19.44° C | 97% | 1015 hPa | 4.32 mm | - | 0 W/m² | - |
| 1778121328 | 19.44° C | 97% | 1014.9 hPa | 10.67 mm | - | 0 W/m² | - |
| 1778121026 | 20° C | 97% | 1014.7 hPa | 22.86 mm | - | 0 W/m² | - |
| 1778120723 | 20° C | 97% | 1015.1 hPa | 31.24 mm | - | 0 W/m² | - |
| 1778120418 | 20.56° C | 97% | 1015.1 hPa | 48.01 mm | - | 0 W/m² | - |
| 1778120114 | 20.56° C | 97% | 1014.3 hPa | 51.05 mm | - | 0 W/m² | - |
| 1778119811 | 20.56° C | 97% | 1014.7 hPa | 34.8 mm | - | 0 W/m² | - |
| 1778119508 | 21.11° C | 97% | 1014.7 hPa | 19.3 mm | - | 0 W/m² | - |
| 1778119205 | 21.11° C | 97% | 1014.4 hPa | 7.87 mm | - | 0 W/m² | - |
| 1778118904 | 21.11° C | 97% | 1013.7 hPa | 7.87 mm | - | 0 W/m² | - |
| 1778118600 | 21.11° C | 97% | 1014.1 hPa | 4.83 mm | - | 0 W/m² | - |
| 1778118297 | 21.67° C | 96% | 1014 hPa | 0.51 mm | - | 0 W/m² | - |
| 1778117993 | 21.67° C | 97% | 1014.4 hPa | 0 mm | - | 0 W/m² | - |
| 1778117689 | 22.22° C | 97% | 1014 hPa | 0 mm | - | 0 W/m² | - |
| 1778117387 | 22.22° C | 97% | 1014.2 hPa | 0.51 mm | - | 0 W/m² | - |
* Rain latest hour (hover to see other rain measurements)
** Current wind speed in m/s (hover to see current wind gust speed)